This is the latest recevied weather packets stored in our database for station/object KF4UQS-14. If no packets are shown the sender has not sent any weather packets the latest 10 day(s).
| Time | Temp. | Humidity | Pressure | Rain* | Wind** | Luminosity | Snow |
|---|---|---|---|---|---|---|---|
| 1777609600 | 14.44° C | 77% | 1013 hPa | 0 mm | - | 0 W/m² | - |
| 1777609298 | 14.44° C | 78% | 1012.9 hPa | 0 mm | - | 0 W/m² | - |
| 1777608995 | 14.44° C | 79% | 1012.9 hPa | 0 mm | - | 0 W/m² | - |
| 1777608692 | 14.44° C | 80% | 1012.7 hPa | 0 mm | - | 0 W/m² | - |
| 1777608389 | 13.89° C | 81% | 1012.8 hPa | 0 mm | - | 0 W/m² | - |
| 1777608087 | 13.89° C | 82% | 1012.6 hPa | 0 mm | - | 0 W/m² | - |
| 1777607783 | 13.89° C | 82% | 1012.6 hPa | 0 mm | - | 0 W/m² | - |
| 1777607480 | 13.89° C | 84% | 1012.5 hPa | 0 mm | - | 0 W/m² | - |
| 1777607176 | 13.89° C | 86% | 1012.5 hPa | 0 mm | - | 0 W/m² | - |
| 1777606872 | 13.33° C | 89% | 1012.5 hPa | 0 mm | - | 0 W/m² | - |
| 1777606568 | 12.78° C | 92% | 1012.5 hPa | 0 mm | - | 0 W/m² | - |
| 1777606263 | 12.22° C | 94% | 1012.4 hPa | 0 mm | - | 0 W/m² | - |
| 1777605958 | 11.67° C | 94% | 1011.7 hPa | 0 mm | - | 0 W/m² | - |
| 1777605655 | 11.67° C | 93% | 1011.7 hPa | 0 mm | - | 0 W/m² | - |
| 1777605354 | 11.67° C | 93% | 1011.4 hPa | 0 mm | - | 0 W/m² | - |
| 1777605051 | 11.67° C | 92% | 1011.4 hPa | 0 mm | - | 0 W/m² | - |
| 1777604746 | 11.67° C | 92% | 1011.5 hPa | 0 mm | - | 0 W/m² | - |
| 1777604443 | 12.22° C | 91% | 1011.6 hPa | 0 mm | - | 0 W/m² | - |
| 1777604143 | 12.22° C | 90% | 1011.6 hPa | 0 mm | - | 0 W/m² | - |
| 1777603840 | 12.78° C | 91% | 1011.4 hPa | 0 mm | - | 0 W/m² | - |
| 1777603536 | 12.22° C | 91% | 1011.3 hPa | 0 mm | - | 0 W/m² | - |
| 1777603232 | 12.22° C | 90% | 1011.5 hPa | 0 mm | - | 0 W/m² | - |
| 1777602928 | 12.78° C | 90% | 1011.4 hPa | 0 mm | - | 0 W/m² | - |
| 1777602624 | 12.78° C | 91% | 1011.4 hPa | 0 mm | - | 0 W/m² | - |
| 1777602319 | 12.78° C | 91% | 1011.4 hPa | 0 mm | - | 0 W/m² | - |
* Rain latest hour (hover to see other rain measurements)
** Current wind speed in m/s (hover to see current wind gust speed)